User: anonymous
Location: NC_16_and_73
(35.4490°N, 81.0150°W)
Time: 01:58:25
(UTC-04:00)
Language:

Cosmos-2242 - Orbit

View from above orbital plane
View from above orbital plane
View from above satellite
View from above satellite

Ground track
Ground track

The orbit data is extracted from the following two-line orbital elements,

1 22626U 93024A   14273.47106931  .00001985  00000-0  22332-3 0  2209
2 22626 082.5210 255.0667 0020589 162.5844 197.6084 14.86074702158900
Epoch (UTC): 30 September 2014 11:18:20
Eccentricity: 0.0020589
inclination: 82.5210°
perigee height: 596 km
apogee height: 624 km
right ascension of ascending node: 255.0667°
argument of perigee: 162.5844°
revolutions per day: 14.86074702
mean anomaly at epoch: 197.6084°
orbit number at epoch: 15890

The dashed part of the orbit path shows where the satellite is in the earth's shadow,  

DLR